Weather History for Minchumina, AK

Change the Weather History Date:

Friday, March 1, 2013

  Actual Average Record
Temperature  
Mean Temperature 5 °F -  
Max Temperature 17 °F 14 °F 28 °F (2003)
Min Temperature -7 °F 0 °F -32 °F (2006)
Degree Days  
Heating Degree Days 60    
Moisture  
Dew Point 0 °F    
Average Humidity 78    
Maximum Humidity 100    
Minimum Humidity 50    
Precipitation  
Precipitation 0.00 in - - ()
Sea Level Pressure  
Sea Level Pressure 29.77 in    
Wind  
Wind Speed 0 mph (NNW)    
Max Wind Speed 4 mph    
Max Gust Speed -    
Visibility 10 miles    
Events      
Averages and records for this station are not official NWS values.
T = Trace of Precipitation, MM = Missing Value Source: NWS Daily Summary

Daily Weather History Graph

Daily Weather History Graph

Search for Another Location

Airport:

Trip Planner

Search our weather history database for the weather conditions in past years. The results will help you decide how hot, cold, wet, or windy it might be!

Date:

Astronomy

Mar. 01, 2013 Rise Set
Actual Time 8:14 AM AKST 6:29 PM AKST
Civil Twilight 7:26 AM AKST 7:17 PM AKST
Nautical Twilight 6:32 AM AKST 8:12 PM AKST
Astronomical Twilight 5:36 AM AKST 9:08 PM AKST
Moon No Moon Rise 8:24 AM AKST (3/1)
Length of Visible Light 11h 50m
Length of Day
10h 15m
Waning Gibbous, 82% of the Moon is Illuminated
Mar 1
Waning Gibbous
Mar 4
Last Quarter
Mar 11
New
Mar 19
First Quarter
Mar 27
Full

Hourly Weather History & Observations

Time (AKST) Temp. Windchill Dew Point Humidity Pressure Visibility Wind Dir Wind Speed Gust Speed Precip Events Conditions
12:16 AM -0.4 °F - -0.4 °F 100% 29.53 in 10.0 mi Calm Calm - N/A   Clear
12:56 AM 1.4 °F - 1.4 °F 100% 29.54 in 10.0 mi Calm Calm - N/A   Clear
1:16 AM 3.2 °F - 1.4 °F 92% 29.55 in 10.0 mi Calm Calm - N/A   Clear
1:36 AM 6.8 °F - 3.2 °F 85% 29.56 in 10.0 mi Calm Calm - N/A   Clear
1:56 AM -2.2 °F - -14.8 °F 55% 29.57 in 10.0 mi Calm Calm - N/A   Clear
2:16 AM -2.2 °F - -5.8 °F 85% 29.57 in 10.0 mi Calm Calm - N/A   Clear
2:36 AM -0.4 °F - -2.2 °F 92% 29.58 in 10.0 mi Calm Calm - N/A   Partly Cloudy
3:16 AM -0.4 °F - -4.0 °F 85% 29.59 in 10.0 mi Calm Calm - N/A   Mostly Cloudy
3:36 AM -0.4 °F - -5.8 °F 78% 29.60 in 10.0 mi Calm Calm - N/A   Clear
3:56 AM -4.0 °F - -9.4 °F 78% 29.61 in 10.0 mi Calm Calm - N/A   Clear
4:16 AM -5.8 °F - -5.8 °F 100% 29.61 in 10.0 mi Calm Calm - N/A   Clear
4:36 AM -2.2 °F - -5.8 °F 85% 29.62 in 10.0 mi Calm Calm - N/A   Clear
4:56 AM -2.2 °F - -7.6 °F 78% 29.63 in 10.0 mi Calm Calm - N/A   Clear
5:16 AM -5.8 °F - -5.8 °F 100% 29.63 in 10.0 mi Calm Calm - N/A   Clear
5:36 AM -2.2 °F - -7.6 °F 78% 29.64 in 10.0 mi Calm Calm - N/A   Clear
5:56 AM -5.8 °F - -14.8 °F 65% 29.65 in 10.0 mi Calm Calm - N/A   Clear
6:16 AM -2.2 °F - -4.0 °F 92% 29.65 in 10.0 mi Calm Calm - N/A   Clear
6:36 AM -5.8 °F - -16.6 °F 60% 29.67 in 10.0 mi Calm Calm - N/A   Clear
6:56 AM -7.6 °F - -7.6 °F 100% 29.67 in 10.0 mi Calm Calm - N/A   Clear
7:16 AM -7.6 °F - -16.6 °F 65% 29.68 in 10.0 mi Calm Calm - N/A   Clear
7:36 AM -4.0 °F - -4.0 °F 100% 29.69 in 10.0 mi Calm Calm - N/A   Clear
7:56 AM -5.8 °F - -9.4 °F 84% 29.70 in 10.0 mi Calm Calm - N/A   Clear
8:16 AM -5.8 °F - -5.8 °F 100% 29.70 in 10.0 mi Calm Calm - N/A   Clear
8:36 AM -5.8 °F - -7.6 °F 92% 29.71 in 10.0 mi Calm Calm - N/A   Clear
8:56 AM -0.4 °F - -0.4 °F 100% 29.72 in 10.0 mi Calm Calm - N/A   Clear
9:16 AM -5.8 °F - -20.2 °F 50% 29.72 in 10.0 mi Calm Calm - N/A   Clear
9:36 AM -7.6 °F -16.5 °F -7.6 °F 100% 29.73 in 10.0 mi West 3.5 mph - N/A   Scattered Clouds
9:56 AM 1.4 °F - 1.4 °F 100% 29.74 in 10.0 mi Calm Calm - N/A   Partly Cloudy
10:16 AM -0.4 °F - -5.8 °F 78% 29.75 in 10.0 mi Calm Calm - N/A   Clear
10:36 AM -0.4 °F - -5.8 °F 78% 29.76 in 10.0 mi Calm Calm - N/A   Mostly Cloudy
10:56 AM 3.2 °F - 3.2 °F 100% 29.77 in 10.0 mi Calm Calm - N/A   Overcast
11:16 AM 3.2 °F - -0.4 °F 85% 29.77 in 10.0 mi Calm Calm - N/A   Overcast
11:36 AM 3.2 °F - -5.8 °F 66% 29.78 in 10.0 mi Calm Calm - N/A   Mostly Cloudy
11:56 AM 8.6 °F - 5.0 °F 85% 29.78 in 10.0 mi Calm Calm - N/A   Mostly Cloudy
12:36 PM 10.4 °F - -0.4 °F 62% 29.80 in 10.0 mi Calm Calm - N/A   Scattered Clouds
12:56 PM 10.4 °F - 6.8 °F 85% 29.81 in 10.0 mi Calm Calm - N/A   Scattered Clouds
1:16 PM 10.4 °F - -0.4 °F 62% 29.81 in 10.0 mi Calm Calm - N/A   Overcast
1:36 PM 10.4 °F - 3.2 °F 73% 29.82 in 10.0 mi Calm Calm - N/A   Overcast
1:56 PM 14.0 °F - 8.6 °F 79% 29.82 in 10.0 mi Calm Calm - N/A   Overcast
2:16 PM 15.8 °F - 6.8 °F 68% 29.82 in 10.0 mi Calm Calm - N/A   Overcast
2:36 PM 17.6 °F - 6.8 °F 63% 29.83 in 10.0 mi Calm Calm - N/A   Overcast
2:56 PM 15.8 °F - 6.8 °F 68% 29.83 in 10.0 mi Calm Calm - N/A   Overcast
3:16 PM 15.8 °F - 6.8 °F 68% 29.84 in 10.0 mi Calm Calm - N/A   Mostly Cloudy
3:36 PM 15.8 °F - 6.8 °F 68% 29.84 in 10.0 mi Calm Calm - N/A   Mostly Cloudy
3:56 PM 17.6 °F - 6.8 °F 63% 29.85 in 10.0 mi Calm Calm - N/A   Overcast
4:16 PM 17.6 °F - 6.8 °F 63% 29.85 in 10.0 mi Calm Calm - N/A   Overcast
4:36 PM 17.6 °F - 6.8 °F 63% 29.86 in 10.0 mi Calm Calm - N/A   Overcast
4:56 PM 15.8 °F - 6.8 °F 68% 29.86 in 10.0 mi Calm Calm - N/A   Overcast
5:16 PM 15.8 °F - 6.8 °F 68% 29.87 in 10.0 mi Calm Calm - N/A   Mostly Cloudy
5:36 PM 15.8 °F - 6.8 °F 68% 29.87 in 10.0 mi Calm Calm - N/A   Overcast
5:56 PM 15.8 °F - 6.8 °F 68% 29.88 in 10.0 mi Calm Calm - N/A   Overcast
6:16 PM 14.0 °F 8.2 °F 6.8 °F 73% 29.88 in 10.0 mi NNW 3.5 mph - N/A   Overcast
6:36 PM 14.0 °F - 6.8 °F 73% 29.89 in 10.0 mi Calm Calm - N/A   Overcast
6:56 PM 14.0 °F - 6.8 °F 73% 29.89 in 10.0 mi Calm Calm - N/A   Overcast
7:16 PM 14.0 °F - 6.8 °F 73% 29.89 in 10.0 mi Calm Calm - N/A   Overcast
7:36 PM 14.0 °F 8.2 °F 6.8 °F 73% 29.90 in 10.0 mi North 3.5 mph - N/A   Overcast
7:56 PM 14.0 °F 8.2 °F 6.8 °F 73% 29.91 in 10.0 mi North 3.5 mph - N/A   Overcast
8:16 PM 14.0 °F - 6.8 °F 73% 29.91 in 10.0 mi Calm Calm - N/A   Overcast
8:36 PM 14.0 °F - 6.8 °F 73% 29.92 in 10.0 mi Calm Calm - N/A   Overcast
8:56 PM 15.8 °F - 6.8 °F 68% 29.92 in 10.0 mi Calm Calm - N/A   Overcast
9:16 PM 14.0 °F - 6.8 °F 73% 29.92 in 10.0 mi Calm Calm - N/A   Overcast
9:36 PM 14.0 °F - 6.8 °F 73% 29.92 in 10.0 mi Calm Calm - N/A   Overcast
9:56 PM 12.2 °F - 6.8 °F 79% 29.93 in 10.0 mi Calm Calm - N/A   Overcast
10:16 PM 12.2 °F - 5.0 °F 73% 29.93 in 10.0 mi Calm Calm - N/A   Overcast
10:36 PM 12.2 °F - 5.0 °F 73% 29.94 in 10.0 mi Calm Calm - N/A   Overcast
10:56 PM 12.2 °F - 5.0 °F 73% 29.95 in 10.0 mi Calm Calm - N/A   Overcast
11:16 PM 12.2 °F - 6.8 °F 79% 29.95 in 10.0 mi Calm Calm - N/A   Overcast
11:36 PM 12.2 °F - 6.8 °F 79% 29.95 in 10.0 mi Calm Calm - N/A   Overcast
11:56 PM 12.2 °F - 5.0 °F 73% 29.96 in 10.0 mi Calm Calm - N/A   Overcast